Powrót do katalogu

COSMOS 2133

AktywnyMilitariaGEO
NORAD 21111·PAYLOAD·🇷🇺 Russia

Wystrzelony Feb 14, 1991 z Baikonur Cosmodrome

Loading…

TLE

ŚwieżeSource: Space-Track

Epoka: Sep 13, 2026, 17:38 UTC

1 21111U 91010A   26256.73505454 -.00000128  00000-0  00000-0 0  9993
2 21111  13.1864 342.1364 0006402 206.8484 144.9511  1.00260290130322

Śledź COSMOS 2133 w czasie rzeczywistym z AllMySat

Download on the App Store